Location: Shot Rock
(38.6247°N, 120.1956°W)
Time: 07:34:19
(UTC-07:00)

Envisat - Visible Passes

Search period start: 18 August 2018 00:00
Search period end: 28 August 2018 00:00
Orbit: 764 x 766 km, 98.2° (Epoch: 18 August)

Date Brightness Start Highest point End Pass type
(mag) Time Alt. Az. Time Alt. Az. Time Alt. Az.
18 Aug 3.1 20:12:14 10° SSE 20:17:17 84° WSW 20:22:23 10° NNW visible
19 Aug 5.5 21:16:09 10° SW 21:19:51 20° W 21:23:33 10° NW visible
20 Aug 4.1 20:38:02 10° S 20:42:53 46° W 20:47:46 10° NNW visible
21 Aug 6.0 21:44:32 10° WSW 21:45:41 11° W 21:46:50 10° WNW visible
22 Aug 5.1 21:04:25 10° SSW 21:08:35 26° W 21:12:47 10° NW visible
23 Aug 3.6 20:26:42 10° S 20:31:41 59° W 20:36:42 10° NNW visible
24 Aug 5.7 21:31:44 10° WSW 21:34:23 14° W 21:37:02 10° WNW visible
25 Aug 4.7 20:52:49 10° SSW 20:57:21 32° W 21:01:53 10° NNW visible
26 Aug 3.2 20:15:27 10° S 20:20:30 76° WSW 20:25:36 10° NNW visible
27 Aug 5.6 21:19:40 10° SW 21:23:06 18° W 21:26:34 10° NW visible
